Volver al catálogo

STARLINK-4755

ActivoComunicacionesVLEO
NORAD 53851·PAYLOAD·🇺🇸 United States

Lanzado Sep 19, 2022 desde Cape Canaveral Space Force Station

Loading…

Próximos Pases (próximas 24 horas)

TLE

ActualizadoSource: CelesTrak SupGP

Época: Sep 14, 2026, 20:52 UTC

1 53851C 22114AK  26257.86993056 -.00032441  00000+0 -20343-2 0  2576
2 53851  53.1585 164.0018 0001560  92.5142 301.7380 15.08853773    16

Sigue STARLINK-4755 en tiempo real con AllMySat

Download on the App Store